OpenBCM V2.0.3 (Linux)

Packet Radio Mailbox

IZ3LSV

[San Dona' di P. JN]

 Login: GUEST





  
I0OJJ  > AMSAT    08.09.26 02:35l 332 Lines 15654 Bytes #999 (0) @ WW
BID : 5TF_IR0EQ
Read: GUEST
Subj: 2Line Orbital Elements
Path: IZ3LSV<I0OJJ<IR0EQ
Sent: 260908/0027z @:IR0EQ.ITA.EU [Rome] $:5TF_IR0EQ

>From i0ojj%ir0eq.ita.eu@i0ojj.ampr.org Tue Sep  8 02:31:18 2026
Received: from i0ojj.ampr.org by i0ojj.ampr.org (JNOS2.0q.1) with SMTP
	id AA17066248 ; Tue, 08 Sep 2026 02:31:18 +0200
Message-Id: <5TF_IR0EQ@i0ojj.bbs>
>From: i0ojj@ir0eq.ita.eu
X-JNOS-User-Port: Telnet   (i0ojj @ 44.27.18.9)  ->   Sending message

>From i0ojj@rgate.ampr.org Tue Sep  8 02:27:20 2026
Received: from rgate.ampr.org by rgate.ampr.org (JNOS2.0q.1) with SMTP
	id AA7539 ; Tue, 08 Sep 2026 02:27:20 +0200
Received: by rgate.ampr.org with SMTP
	id AA7536 ; Tue, 08 Sep 2026 02:27:02 +0200
Message-Id: <7537@rgate.ampr.org>
>From: i0ojj@rgate.ampr.org

SB KEPS @ AMSAT  $ORB26251.1
2Line Orbital Elements 26251.AMSAT

QST de W1STR

AMSAT Orbital Elements for Amateur Satellites in TLE Format
>From Orbital Analysis Office
New England Sci-Tech STEM Education Center
Natick MA September 08, 2026
To all radio amateurs


These element sets describe the orbits of various satellites 
in use by the amateur radio community. For details see:
www.amsat.org/keplerian-elements-formats/

A daily update of element sets is available at:
www.amsat.org/tle/daily-bulletin.txt
or without bulletin text:
www.amsat.org/tle/dailytle.txt


AO-07
1 07530U 74089B   26250.58640670 -.00000030  00000-0  10080-3 0  9990
2 07530 101.9922 264.6947 0012106 335.6827 141.6305 12.53699454370843
UO-11
1 14781U 84021B   26250.37115427  .00000969  00000-0  10378-3 0  9997
2 14781  97.8156 215.0777 0005989 274.0254  86.0279 14.90974170269374
LO-19
1 20442U 90005G   26250.57813401  .00000054  00000-0  35847-4 0  9990
2 20442  98.8831 274.6449 0010912 329.2237  30.8306 14.34142386914200
AO-27
1 22825U 93061C   26250.43953294  .00000036  00000-0  30574-4 0  9994
2 22825  98.6808 317.7932 0007763 212.4230 147.6477 14.30959752718769
FO-29
1 24278U 96046B   26250.52431467 -.00000016  00000-0  21846-4 0  9998
2 24278  98.5175  88.1091 0348943 242.6895 113.8318 13.53277757484305
GO-32
1 25397U 98043D   26250.52925365  .00000028  00000-0  32314-4 0  9999
2 25397  99.0146 245.3927 0001408  26.6972 333.4278 14.24441652463055
ISS
1 25544U 98067A   26250.49846501  .00005306  00000-0  10435-3 0  9992
2 25544  51.6306 252.7093 0004984 115.8922 244.2580 15.49018229584513
NO-44
1 26931U 01043C   26250.57611282  .00000047  00000-0  48480-4 0  9995
2 26931  67.0517  31.1697 0005716 271.6838  88.3610 14.31981588302245
SO-50
1 27607U 02058C   26249.33963231  .00000557  00000-0  83495-4 0  9990
2 27607  64.5505 237.8704 0072473 247.5693 111.7726 14.83196424276494
CO-55
1 27844U 03031E   26250.57722015  .00000187  00000-0  99645-4 0  9999
2 27844  98.6771 258.1127 0008639 311.5550  48.4887 14.24377896203406
RS-22
1 27939U 03042A   26250.65366701  .00000642  00000-0  10683-3 0  9991
2 27939  98.3490  77.3650 0011663  13.5253  75.2446 14.73590287227699
CO-65
1 32785U 08021C   26250.62934340  .00004098  00000-0  25532-3 0  9993
2 32785  97.8364 233.8426 0010400 105.1362 255.1018 15.10109383997632
CO-66
1 32791U 08021J   26249.93217216  .00013143  00000-0  38553-3 0  9996
2 32791  97.7565 251.9163 0003876  57.1545 303.0070 15.35308299999826
RS-30
1 32953U 08025A   26250.58852513  .00000006  00000-0 -29261-4 0  9990
2 32953  82.5042 304.1931 0020590 130.2162 230.0723 12.43182444829938
SRMSAT
1 37841U 11058D   26250.37359130  .00000361  00000-0  51936-4 0  9992
2 37841  19.9717 282.0072 0011883  29.1934  92.4082 14.11590881769442
ZACUBE-1
1 39417U 13066B   26250.38036860  .00004126  00000-0  31639-3 0  9997
2 39417  97.8104 213.1277 0040655 338.3064  21.6436 15.01741905693064
Delfi-N3xt
1 39428U 13066N   26250.40706885  .00004931  00000-0  42297-3 0  9999
2 39428  97.8298 170.6732 0071268 293.8517  65.5246 14.96015323686918
GOMX-1
1 39430U 13066Q   26250.36860660  .00001015  00000-0  15798-3 0  9995
2 39430  97.6451  85.6524 0128089 172.7311 187.5793 14.69670131681983
LO-74
1 39440U 13066AA  26250.30819216  .00001865  00000-0  17383-3 0  9996
2 39440  97.8971 199.6893 0058414 114.1944 246.5397 14.94224570689258
AO-73
1 39444U 13066AE  26250.62507474  .00005571  00000-0  33785-3 0  9997
2 39444  97.8360 223.8923 0033695 283.9079  75.8403 15.10507399692107
DTUSAT-2
1 40030U 14033W   26250.24264492  .00004511  00000-0  23914-3 0  9999
2 40030  98.0918 253.2612 0006608 326.3149  33.7661 15.15938638665117
LILACSAT-2
1 40908U 15049K   26250.56652442  .00013833  00000-0  21508-3 0  9996
2 40908  97.4579 290.6593 0004904 323.3833  36.7085 15.54041195608536
Lapan A3
1 41603U 16040E   26250.61386362  .00002438  00000-0  77323-4 0  9998
2 41603  97.1557 244.1070 0012132  81.6000 278.6618 15.33556614567445
CAS-2T
1 41847U 16066G   26250.44519347  .00000559  00000-0  88290-4 0  9995
2 41847  98.3763 325.2367 0340184 239.8332 116.8754 14.44829446516673
TechnoSat
1 42829U 17042E   26250.21868001  .00001899  00000-0  13630-3 0  9993
2 42829  97.4390  44.8311 0017802 168.0169 192.1486 15.05365048499043
AO-91
1 43017U 17073E   26250.60034345  .00006818  00000-0  28962-3 0  9996
2 43017  97.4576 116.1327 0148817  44.2696 317.0326 15.13799917477851
S-Net D
1 43186U 18014G   26250.51719372  .00003472  00000-0  17736-3 0  9999
2 43186  97.5262 154.7893 0009875  92.2879 267.9485 15.17322983471248
S-Net B
1 43187U 18014H   26250.20057414  .00003303  00000-0  16901-3 0  9994
2 43187  97.5267 154.4636 0010494  89.3239 270.9197 15.17288135471190
S-Net A
1 43188U 18014J   26250.51562239  .00003488  00000-0  17808-3 0  9996
2 43188  97.5279 155.0015 0010400  88.9805 271.2619 15.17331370471242
S-Net C
1 43189U 18014K   26250.46874769  .00003417  00000-0  17473-3 0  9995
2 43189  97.5296 155.0423 0011705  83.0270 277.2294 15.17279820469788
Ten-Koh
1 43677U 18084G   26250.53851160  .00001252  00000-0  97376-4 0  9998
2 43677  98.0751  86.3852 0008943 191.7033 168.3985 15.03227146428532
PO-101
1 43678U 18084H   26250.58794682  .00000929  00000-0  78466-4 0  9998
2 43678  98.1193  90.4245 0011010 253.0866 106.9150 15.00706805428578
QO-100
1 43700U 18090A   26250.59478490  .00000125  00000-0  00000-0 0  9991
2 43700   0.0171 156.0608 0002551  48.6845  21.8309  1.00271088 28504
MinXSS-2
1 43758U 18099A   26249.96614491  .00032469  00000-0  52764-3 0  9998
2 43758  97.4460 328.9594 0005171 326.0783  34.0138 15.52632309426795
AO-95
1 43770U 18099N   26249.96283615  .00007366  00000-0  26983-3 0  9994
2 43770  97.4311 309.9631 0009645  65.0589 295.1652 15.28268357425701
SNUSat 2
1 43782U 18099AA  26250.09823347  .00005141  00000-0  22174-3 0  9992
2 43782  97.3988 302.2517 0010237  18.3864 341.7741 15.22937498425494
SnugLite
1 43784U 18099AC  26250.39596315  .00007417  00000-0  26826-3 0  9995
2 43784  97.3796 303.9236 0002978  33.1933 326.9493 15.28720703425870
ITASat 1
1 43786U 18099AE  26250.13982254  .00004434  00000-0  20890-3 0  9991
2 43786  97.3958 300.0321 0013781  69.8095 290.4620 15.19941583425355
EAGLET 1
1 43790U 18099AJ  26250.57870948  .00002602  00000-0  14881-3 0  9998
2 43790  97.4161 298.0597 0012492  65.1018 295.1510 15.13466898424792
ESEO
1 43792U 18099AL  26250.52667047  .00000934  00000-0  70864-4 0  9999
2 43792  97.3910 284.3747 0013168  56.2140 304.0339 15.04445988424187
JO-97
1 43803U 18099AX  26250.43475155  .00011975  00000-0  34284-3 0  9991
2 43803  97.4058 313.6628 0004598 352.2720   7.8452 15.36079024426240
Suomi 100
1 43804U 18099AY  26250.12637256  .00008383  00000-0  28971-3 0  9995
2 43804  97.4113 310.2800 0009152 359.8267   0.2969 15.30137758425947
ISAT
1 43879U 18111D   26249.80684451  .00277029  30070-4  95308-3 0  9991
2 43879  97.5772 192.5257 0007348 119.1189 241.0820 15.89552780424011
UWE-4
1 43880U 18111E   26250.53601332  .00037243  00000-0  63632-3 0  9995
2 43880  97.5816 183.0252 0008373  45.1124 315.0806 15.51174978423527
Prox-1
1 44339U 19036A   26250.14614765  .00009399  00000-0  86941-3 0  9992
2 44339  23.9948 286.0121 0004890 263.7417  96.2526 14.92324176385725
Taurus 1
1 44530U 19059C   26250.60168410  .00003417  00000-0  54247-3 0  9991
2 44530  98.6492  60.6325 0009230  57.8140 302.3960 14.72827833370779
TO-108
1 44881U 19093C   26250.56689225  .00001184  00000-0  13929-3 0  9996
2 44881  97.7468 320.7653 0013537 169.2323 190.9186 14.86627404363658
RS-44
1 44909U 19096E   26250.56256832  .00000030  00000-0  81929-4 0  9999
2 44909  82.5184 284.9724 0216619 311.9779  46.3044 12.79749164312887
SALSAT
1 46495U 20068K   26250.53324456  .00005987  00000-0  20357-3 0  9990
2 46495  97.8890 258.6930 0009989  23.9019 336.2682 15.30830840327951
CSS (TIANHE-1)
1 48274U 21035A   26250.28549580  .00015412  00000-0  19145-3 0  9998
2 48274  41.4676 183.5939 0002437 262.5654  97.4907 15.59655656305983
TeikyoSat 4
1 49396U 21102B   26250.57690142  .00001096  00000-0  71571-4 0  9997
2 49396  97.3639 276.8539 0012372  17.3624 342.8027 15.09752876265153
Z-Sat
1 49399U 21102E   26250.56611622  .00003529  00000-0  17233-3 0  9992
2 49399  97.3284 283.3944 0015437 324.8118  35.2096 15.18809463265945
KOSEN 1
1 49402U 21102H   26250.10013719  .00004702  00000-0  17538-3 0  9992
2 49402  97.3127 290.6942 0011508 278.1898  81.8036 15.27846626266524
HO-113
1 50466U 21131B   26250.59210816  .00000234  00000-0  85748-4 0  9991
2 50466  98.4970 342.5338 0003636 194.5979 165.5105 14.41419934246982
SNUGLITE 2
1 52899U 22065F   26249.88729060  .00000560  00000-0  11498-3 0  9998
2 52899  98.2319  34.6329 0008545 122.7910 237.4116 14.64473762222956
UmKA 1 (RS40S)
1 57172U 23091G   26250.51378662  .00004704  00000-0  21114-3 0  9997
2 57172  97.4976 308.9048 0012353 184.5526 175.5599 15.21608976176520
CubeBel-2 (EU11S)
1 57175U 23091K   26250.58517080  .00010406  00000-0  35016-3 0  9998
2 57175  97.4978 314.6108 0009588 173.8839 186.2521 15.30936573176903
